Regional Weather Roundup
Issued by NWS Green Bay, WI

Home | Current Version | Previous Version | Graphics & Text | Print | Product List | Glossary Off
Versions: 1 2 3 4 5 6 7 8 9 10 11 12 13 14 15 16 17 18 19 20 21 22 23 24 25 26 27 28 29 30 31 32 33 34 35 36 37 38 39 40 41 42 43 44 45 46 47 48 49 50

000
ASUS43 KGRB 021659
RWRGRB

NORTH-CENTRAL AND NORTHEAST WISCONSIN REGIONAL WEATHER ROUNDUP
NATIONAL WEATHER SERVICE GREEN BAY WI
1200 PM CDT TUE SEP 02 2014

WIZ005-009-010>012-018-019-021800-
NORTH CENTRAL WISCONSIN

CITY           SKY/WX    TMP DP  RH WIND       PRES   REMARKS
IRONWOOD       NOT AVBL
MANITOWISH WTR NOT AVBL
ARBOR VITAE    NOT AVBL
EAGLE RIVER    NOT AVBL
LAND O LAKES   NOT AVBL
RHINELANDER    MOSUNNY   69  53  56 W12       29.88F
PHILLIPS       NOT AVBL
ANTIGO         NOT AVBL
TOMAHAWK       NOT AVBL
MERRILL        NOT AVBL
$$

WIZ013-073-021800-
NORTHEAST WISCONSIN

CITY           SKY/WX    TMP DP  RH WIND       PRES   REMARKS
IRON MOUNTAIN  CLOUDY    69  54  58 W9        29.83F
MARINETTE      CLOUDY    64  57  77 W5        29.84F
$$

WIZ017-030-035>037-045-021800-
CENTRAL WISCONSIN

CITY           SKY/WX    TMP DP  RH WIND       PRES   REMARKS
MEDFORD        NOT AVBL
WAUSAU         MOSUNNY   70  56  61 W7        29.87S
MOSINEE        MOSUNNY   68  63  83 W6        29.89F
MARSHFIELD     MOSUNNY   70  60  70 SW8       29.88F
WISC RAPIDS    SUNNY     72  57  59 W9        29.91S
STEVENS POINT  NOT AVBL
WAUPACA        NOT AVBL
SHAWANO        NOT AVBL
CLINTONVILLE   NOT AVBL
$$

WIZ038-039-048-051-021800-
FOX VALLEY

CITY           SKY/WX    TMP DP  RH WIND       PRES   REMARKS
NWS GREEN BAY  CLOUDY    68  60  75 CALM      29.87F
APPLETON       MOSUNNY   72  59  64 CALM      29.89F
OSHKOSH        PTSUNNY   72  61  68 W7        29.89S
FOND DU LAC    CLOUDY    72  62  71 W7        29.90S
$$

WIZ022-050-052-021800-
EAST CENTRAL WISCONSIN

CITY           SKY/WX    TMP DP  RH WIND       PRES   REMARKS
STURGEON BAY   CLOUDY    63  57  82 W6        29.88F
MANITOWOC      NOT AVBL
SHEBOYGAN      CLOUDY    73  59  61 W8        29.89S
$$

LMZ563-521-522-541>543-021800-
LAKESHORE

STATION/POSITION TIME  TEMP    WIND        PRES    VSBY  WAVE
                       AIR SEA DIR/SP/G                  HT/PER
                 (UTC) (F)     (DEG/KT/KT) (MB)    (MI)  (FT/S)
SHEBOYGAN LKSHOR 1600   72 49  230/  8/ 10 1011.9R
KEWAUNEE LKSHORE 1600   71     310/  8/ 13 1011.0R
NORTHPORT PIER   1600   68     220/  5/ 10 1010.8R
N MID LAKE BUOY  1600   64 65  240/  8/ 10 1010.8R         1/ 5
S GREEN BAY BUOY 1600   66     VRB  8/ 12  1012.5F
CHAMBERS ISLAND  1600   63     160/  5/  7 1010.5F
MENOMINEE LKSHOR 1600   64     230/  4/  6 1011.4F
$$



USA.gov is the U.S. government's official web portal to all federal, state and local government web resources and services.